Date String (YYYY-MM-DD hh:mm:ss) UTC,Instrument flags,Ambient pressure (hPa),Sample flow (lpm),Bypass flow (lpm),Sample temperature (°C),Ambient temperature (°C),ASC tube jacket temperature (°C),LED temperature (°C),Box temperature (°C),Sample RH (%),Span deviation,Mass concentration (μg/m³),Mass concentration (μg/m³),Mass concentration (μg/m³)
DateTimeUTC,F1_M11,P_M11,Q1_M11,Q2_M11,T1_M11,T2_M11,T3_M11,T4_M11,T5_M11,U1_M11,ZSPAN_M11,X0_M11,X2_M11,X1_M11
2022-05-18 05:00:00,,0827.6,5.00,0.00,29.6,28.1,00.0,38.6,31.4,16.4,0000.0,0010.11,0004.09,0003.09
2022-05-18 05:01:00,,0827.3,5.00,0.00,29.6,28.2,00.0,38.6,31.4,16.3,0000.0,0009.50,0004.04,0002.99
2022-05-18 05:02:00,,0827.2,5.00,0.00,29.6,28.3,00.0,38.6,31.4,16.2,0000.0,0009.71,0004.01,0002.89
2022-05-18 05:03:00,,0827.2,4.98,0.00,29.6,28.3,00.0,38.7,31.5,16.3,0000.0,0010.63,0003.89,0002.79
2022-05-18 05:04:00,,0827.1,5.00,0.00,29.6,28.4,00.0,38.7,31.5,16.6,0000.0,0010.92,0003.90,0002.77
2022-05-18 05:05:00,,0827.0,5.00,0.00,29.7,28.4,00.0,38.7,31.5,16.6,0000.0,0011.56,0003.92,0002.76
2022-05-18 05:06:00,,0827.1,5.01,0.00,29.7,28.4,00.0,38.7,31.5,16.5,0000.0,0011.71,0003.86,0002.70
2022-05-18 05:07:00,,0827.1,4.99,0.00,29.7,28.5,00.0,38.7,31.6,16.2,0000.0,0011.50,0003.75,0002.61
2022-05-18 05:08:00,,0827.1,5.01,0.00,29.7,28.5,00.0,38.7,31.6,15.9,0000.0,0011.40,0003.72,0002.57
2022-05-18 05:09:00,,0827.0,5.00,0.00,29.7,28.6,00.0,38.7,31.6,16.0,0000.0,0011.08,0003.73,0002.58
2022-05-18 05:10:00,,0827.0,5.01,0.00,29.8,28.6,00.0,38.7,31.6,16.0,0000.0,0011.00,0003.72,0002.56
2022-05-18 05:11:00,,0827.0,5.00,0.00,29.8,28.6,00.0,38.7,31.6,15.9,0000.0,0011.23,0003.71,0002.53
2022-05-18 05:12:00,,0827.0,5.00,0.00,29.8,28.6,00.0,38.8,31.7,15.7,0000.0,0011.03,0003.67,0002.49
2022-05-18 05:13:00,,0827.0,5.01,0.00,29.8,28.7,00.0,38.8,31.7,15.4,0000.0,0011.37,0003.62,0002.47
2022-05-18 05:14:00,,0827.0,4.99,0.00,29.8,28.7,00.0,38.8,31.7,15.2,0000.0,0009.95,0003.62,0002.43
2022-05-18 05:15:00,,0827.0,5.00,0.00,29.9,28.7,00.0,38.8,31.7,15.4,0000.0,0009.24,0003.56,0002.39
2022-05-18 05:16:00,,0827.0,5.00,0.00,29.9,28.8,00.0,38.8,31.7,15.1,0000.0,0008.79,0003.48,0002.32
2022-05-18 05:17:00,,0827.0,5.00,0.00,29.9,28.8,00.0,38.8,31.7,15.6,0000.0,0008.41,0003.44,0002.27
2022-05-18 05:18:00,,0827.0,4.99,0.00,29.9,28.8,00.0,38.9,31.8,16.4,0000.0,0008.44,0003.45,0002.27
2022-05-18 05:19:00,,0826.9,5.00,0.00,29.9,28.8,00.0,38.9,31.7,16.3,0000.0,0008.43,0003.47,0002.32
2022-05-18 05:20:00,,0827.0,5.01,0.00,29.9,28.8,00.0,38.9,31.8,16.3,0000.0,0008.62,0003.52,0002.34
2022-05-18 05:21:00,,0826.9,4.99,0.00,30.0,28.8,00.0,38.9,31.8,16.5,0000.0,0008.57,0003.52,0002.35
2022-05-18 05:22:00,,0826.9,4.99,0.00,30.0,28.9,00.0,38.9,31.9,15.8,0000.0,0008.76,0003.52,0002.34
2022-05-18 05:23:00,,0826.8,5.00,0.00,30.0,28.9,00.0,38.9,31.9,15.7,0000.0,0008.75,0003.52,0002.35
2022-05-18 05:24:00,,0826.8,5.00,0.00,30.0,28.9,00.0,39.0,31.9,15.4,0000.0,0008.30,0003.50,0002.36
2022-05-18 05:25:00,,0826.7,5.01,0.00,30.0,27.3,00.0,38.9,31.8,15.5,0000.0,0008.64,0003.51,0002.36
2022-05-18 05:26:00,,0826.7,5.00,0.00,30.0,25.4,00.0,38.8,31.7,15.6,0000.0,0008.62,0003.48,0002.35
2022-05-18 05:27:00,,0826.7,5.01,0.00,29.9,25.5,00.0,38.8,31.5,15.5,0000.0,0008.31,0003.45,0002.34
2022-05-18 05:28:00,,0826.7,5.00,0.00,29.8,25.9,00.0,38.8,31.4,15.4,0000.0,0008.30,0003.43,0002.32
2022-05-18 05:29:00,,0826.7,4.99,0.00,29.7,26.3,00.0,38.8,31.3,15.5,0000.0,0008.80,0003.42,0002.28
2022-05-18 05:30:00,,0826.7,5.01,0.00,29.7,26.7,00.0,38.8,31.3,15.4,0000.0,0008.78,0003.38,0002.22
2022-05-18 05:31:00,,0826.8,4.99,0.00,29.6,27.0,00.0,38.8,31.4,15.5,0000.0,0008.66,0003.34,0002.17
2022-05-18 05:32:00,,0826.8,5.01,0.00,29.6,27.3,00.0,38.7,31.4,15.6,0000.0,0008.73,0003.35,0002.13
2022-05-18 05:33:00,,0826.8,5.00,0.00,29.6,27.6,00.0,38.7,31.4,15.6,0000.0,0008.18,0003.30,0002.12
2022-05-18 05:34:00,,0826.8,4.99,0.00,29.6,27.8,00.0,38.7,31.4,15.6,0000.0,0008.10,0003.27,0002.10
2022-05-18 05:35:00,,0826.7,5.00,0.00,29.6,27.9,00.0,38.7,31.4,15.6,0000.0,0008.07,0003.23,0002.07
2022-05-18 05:36:00,,0826.7,5.01,0.00,29.7,28.0,00.0,38.7,31.4,15.6,0000.0,0007.82,0003.22,0002.07
2022-05-18 05:37:00,,0826.7,5.00,0.00,29.7,28.1,00.0,38.7,31.5,15.6,0000.0,0007.68,0003.24,0002.08
2022-05-18 05:38:00,,0826.6,4.99,0.00,29.7,28.2,00.0,38.7,31.5,15.6,0000.0,0007.61,0003.27,0002.08
2022-05-18 05:39:00,,0826.6,4.99,0.00,29.7,28.3,00.0,38.7,31.5,15.7,0000.0,0007.55,0003.28,0002.08
2022-05-18 05:40:00,,0826.6,5.00,0.00,29.7,28.4,00.0,38.7,31.5,15.6,0000.0,0007.63,0003.28,0002.09
2022-05-18 05:41:00,,0826.6,5.01,0.00,29.7,28.4,00.0,38.7,31.6,15.6,0000.0,0007.60,0003.28,0002.09
2022-05-18 05:42:00,,0826.6,5.00,0.00,29.7,28.5,00.0,38.8,31.6,15.5,0000.0,0008.27,0003.28,0002.08
2022-05-18 05:43:00,,0826.6,5.00,0.00,29.8,28.5,00.0,38.8,31.6,15.6,0000.0,0008.45,0003.24,0002.08
2022-05-18 05:44:00,,0826.6,4.99,0.00,29.8,28.6,00.0,38.8,31.6,15.6,0000.0,0008.48,0003.24,0002.08
2022-05-18 05:45:00,,0826.6,5.01,0.00,29.8,28.6,00.0,38.8,31.7,15.6,0000.0,0008.65,0003.26,0002.06
2022-05-18 05:46:00,,0826.5,5.00,0.00,29.8,28.6,00.0,38.8,31.7,15.7,0000.0,0008.92,0003.32,0002.07
2022-05-18 05:47:00,,0826.5,5.00,0.00,29.8,28.7,00.0,38.8,31.7,15.8,0000.0,0008.88,0003.33,0002.06
2022-05-18 05:48:00,,0826.5,5.00,0.00,29.8,28.7,00.0,38.8,31.7,15.7,0000.0,0008.88,0003.33,0002.04
2022-05-18 05:49:00,,0826.5,5.01,0.00,29.9,28.7,00.0,38.8,31.7,15.7,0000.0,0008.88,0003.31,0002.02
2022-05-18 05:50:00,,0826.5,5.00,0.00,29.9,28.7,00.0,38.9,31.8,15.6,0000.0,0008.91,0003.29,0002.00
2022-05-18 05:51:00,,0826.5,4.99,0.00,29.9,28.7,00.0,38.9,31.8,15.7,0000.0,0008.65,0003.25,0001.98
2022-05-18 05:52:00,,0826.5,5.00,0.00,29.9,28.8,00.0,38.9,31.8,15.6,0000.0,0008.39,0003.21,0001.93
2022-05-18 05:53:00,,0826.5,5.00,0.00,29.9,28.8,00.0,38.9,31.8,15.4,0000.0,0008.08,0003.16,0001.91
2022-05-18 05:54:00,,0826.5,4.99,0.00,30.0,28.8,00.0,38.9,31.8,15.4,0000.0,0007.69,0003.14,0001.89
2022-05-18 05:55:00,,0826.5,5.01,0.00,30.0,28.8,00.0,38.9,31.8,15.3,0000.0,0007.81,0003.08,0001.86
2022-05-18 05:56:00,,0826.5,4.99,0.00,30.0,28.8,00.0,38.9,31.8,15.4,0000.0,0008.07,0003.05,0001.85
2022-05-18 05:57:00,,0826.5,5.01,0.00,30.0,28.8,00.0,38.9,31.9,15.4,0000.0,0007.92,0003.03,0001.83
2022-05-18 05:58:00,,0826.5,4.99,0.00,30.0,28.8,00.0,39.0,31.9,15.3,0000.0,0007.71,0003.00,0001.82
2022-05-18 05:59:00,,0826.5,5.00,0.00,30.0,28.8,00.0,39.0,31.9,15.2,0000.0,0007.72,0003.00,0001.81
